Location: Caltech
(34.1382°N, 118.1253°W)
Time: 10:37:43
(UTC-08:00)

HO-68 - Visible Passes

Search period start: 20 December 2014 00:00
Search period end: 30 December 2014 00:00
Orbit: 1193 x 1205 km, 100.2° (Epoch: 20 December)

Date Brightness Start Highest point End Pass type
(mag) Time Alt. Az. Time Alt. Az. Time Alt. Az.
27 Dec ? 19:59:46 10° N 19:59:46 10° N 19:59:49 10° N visible
28 Dec ? 19:42:31 11° N 19:42:31 11° N 19:42:47 10° N visible
29 Dec ? 19:25:16 12° N 19:25:16 12° N 19:25:38 10° N visible
